Home   Weather   Basel   Past weeks

Flag for Switzerland Past Weather in Basel, Basel-Stadt, Switzerland — Yesterday and Last 2 Weeks

Now
35 °F

Fog.


Feels Like: 29 °F
Forecast: 23 / 37 °F
Wind: 7 mph from Northwest

Location: Bale-Mulhouse

Current Time: Dec 3, 2016 at 12:45:20 pm

Latest Report: Dec 3, 2016 at 12:00 pm


Visibility: 1 mi

Pressure: 30.19 "Hg

Humidity: 99%

Dew Point: 35 °F

Location of BaselLocation

Past Weather in Basel — Graph

°F

Basel Temperature Yesterday

Maximum temperature yesterday: 43 °F (at 2:00 pm)
Minimum temperature yesterday: 24 °F (at 4:00 am)
Average temperature yesterday: 32 °F

High & Low Weather Summary for the Past Weeks

 TemperatureHumidityPressure
High66 °F (Nov 20, 3:00 pm)100% (Nov 24, 1:00 am)30.63 "Hg (Nov 24, 1:00 am)
Low21 °F (Nov 29, 4:00 am)37% (Nov 20, 3:00 pm)29.63 "Hg (Nov 21, 3:00 pm)
Average40 °F85%30.09 "Hg
* Reported Nov 18 11:00 am — Dec 3 11:00 am, Basel, Weather by CustomWeather, © 2016

Note: Actual official high and low records may vary slightly from our data, if they occured in-between our weather recording intervals... More about our weather records

Advertising

Basel Weather History for the Previous 24 Hours

Scroll right to see more
 ConditionsComfort  
Time TempWeatherWind HumidityBarometerVisibility
11:00 am
Sat, Dec 3
35 °FFog.9 mph100%30.20 "Hg1 mi
10:00 am35 °FFog.7 mph100%30.19 "Hg1 mi
9:00 am35 °FFog.5 mph100%30.18 "Hg0 mi
8:00 am34 °FFog.2 mph99%30.17 "Hg0 mi
7:00 am33 °FFog.3 mph99%30.16 "Hg1 mi
6:00 am33 °FFog.3 mph99%30.16 "Hg1 mi
5:00 am32 °FFog.2 mph98%30.16 "Hg0 mi
4:00 am32 °FLight snow. Dense fog.2 mph99%30.17 "Hg0 mi
3:00 am32 °FIce fog.3 mph100%30.18 "Hg0 mi
2:00 am29 °FLow clouds.5 mph96%30.19 "Hg2 mi
1:00 am30 °FOvercast.2 mph97%30.19 "Hg2 mi
12:00 am28 °FFog.2 mph96%30.20 "Hg2 mi
11:00 pm
Fri, Dec 2
28 °FFog.1 mph96%30.20 "Hg2 mi
10:00 pm29 °FFog.1 mph95%30.20 "Hg2 mi
9:00 pm33 °FOvercast.3 mph92%30.20 "Hg4 mi
7:00 pm32 °FOvercast.2 mph91%30.22 "Hg3 mi
6:00 pm33 °FPassing clouds.3 mph85%30.22 "Hg5 mi
5:00 pm35 °FPassing clouds.8 mph82%30.20 "Hg6 mi
4:00 pm40 °FPassing clouds.7 mph72%30.20 "Hg9 mi
3:00 pm42 °FPassing clouds.6 mph66%30.19 "Hg6 mi
2:00 pm43 °FPassing clouds.2 mph60%30.20 "Hg6 mi
1:00 pm41 °FPassing clouds.2 mph66%30.23 "Hg6 mi
12:00 pm38 °FPassing clouds.2 mph72%30.26 "Hg5 mi
Weather by CustomWeather, © 2016

See weather overviewHow to use our weather pages